Terug naar catalogus

DMSP 5D-2 F13 DEB

ActiefSSO
NORAD 40414·DEBRIS·🇺🇸 United States

Gelanceerd Mar 24, 1995 vanaf Vandenberg Space Force Base

Loading…

Volgende Passages (komende 24 uur)

TLE

VersSource: Space-Track

Epoch: Sep 14, 2026, 12:53 UTC

1 40414U 95015AB  26257.53732510  .00001334  00000-0  50508-3 0  9993
2 40414  98.6215 285.2201 0011453  28.1979 331.9823 14.32803007600076

Volg DMSP 5D-2 F13 DEB in realtime met AllMySat

Download on the App Store